EN

Hourly Weather Barsukovskiy

Today, 27 January, Wednesday

Time Temperature Precipitation Wind Pressure Humidity
00:00 +2°C° 0 mm 3 mps 730 mmHg 81%
01:00 +2°C° 0 mm 3 mps 730 mmHg 80%
02:00 +1°C° 0 mm 3 mps 729 mmHg 79%
03:00 +1°C° 0 mm 3 mps 729 mmHg 76%
04:00 +1°C° 0 mm 3 mps 728 mmHg 76%
05:00 +1°C° 0 mm 3 mps 728 mmHg 76%
06:00 +1°C° 0 mm 3 mps 728 mmHg 76%
07:00 +1°C° 0 mm 3 mps 727 mmHg 76%
08:00 +1°C° 0 mm 3 mps 727 mmHg 75%
09:00 +2°C° 0 mm 3 mps 727 mmHg 75%
10:00 +3°C° 0 mm 4 mps 726 mmHg 73%
11:00 +3°C° 0 mm 4 mps 726 mmHg 71%
12:00 +4°C° 0 mm 4 mps 725 mmHg 69%
13:00 +4°C° 0 mm 4 mps 725 mmHg 71%
14:00 +4°C° 0 mm 4 mps 724 mmHg 73%
15:00 +3°C° 0 mm 5 mps 724 mmHg 78%
16:00 +2°C° 0 mm 5 mps 723 mmHg 83%
17:00 +1°C° 0 mm 4 mps 723 mmHg 88%
18:00 0°C° 0 mm 4 mps 723 mmHg 92%
19:00 0°C° 0 mm 4 mps 723 mmHg 92%
20:00 0°C° 0 mm 4 mps 723 mmHg 92%
21:00 0°C° 0 mm 4 mps 723 mmHg 93%
22:00 +1°C° 0 mm 3 mps 722 mmHg 91%
23:00 +1°C° 0 mm 3 mps 722 mmHg 89%

Tomorrow, 28 January, Thursday

Time Temperature Precipitation Wind Pressure Humidity
00:00 +1°C° 0 mm 3 mps 722 mmHg 87%
01:00 +1°C° 0 mm 3 mps 722 mmHg 84%
02:00 +1°C° 0 mm 3 mps 721 mmHg 81%
03:00 +1°C° 0 mm 3 mps 721 mmHg 79%
04:00 +1°C° 0 mm 3 mps 720 mmHg 79%
05:00 +1°C° 0 mm 3 mps 720 mmHg 79%
06:00 +1°C° 0 mm 3 mps 720 mmHg 80%
07:00 +1°C° 0 mm 3 mps 720 mmHg 79%
08:00 +3°C° 0 mm 2 mps 720 mmHg 78%
09:00 +3°C° 0 mm 2 mps 720 mmHg 78%
10:00 +4°C° 0 mm 2 mps 720 mmHg 74%
11:00 +6°C° 0 mm 2 mps 720 mmHg 70%
12:00 +7°C° 0 mm 2 mps 720 mmHg 66%
13:00 +7°C° 0 mm 2 mps 721 mmHg 69%
14:00 +8°C° 0 mm 3 mps 721 mmHg 71%
15:00 +7°C° 0 mm 4 mps 721 mmHg 73%
16:00 +6°C° 0.1 mm 4 mps 722 mmHg 79%
17:00 +5°C° 0.1 mm 5 mps 723 mmHg 84%
18:00 +3°C° 0.1 mm 5 mps 724 mmHg 90%
19:00 +3°C° 0.1 mm 5 mps 724 mmHg 88%
20:00 +2°C° 0.1 mm 5 mps 725 mmHg 87%
21:00 +2°C° 0.1 mm 5 mps 725 mmHg 86%
22:00 +1°C° 0.1 mm 4 mps 726 mmHg 87%
23:00 +2°C° 0.1 mm 3 mps 726 mmHg 89%

Day after tomorrow, 29 January, Friday

Time Temperature Precipitation Wind Pressure Humidity
00:00 +3°C° 0.1 mm 2 mps 726 mmHg 90%
01:00 +3°C° 0.2 mm 1 mps 726 mmHg 90%
02:00 +3°C° 0.2 mm 1 mps 726 mmHg 91%
03:00 +3°C° 0.2 mm 1 mps 726 mmHg 91%
04:00 +2°C° 0.1 mm 1 mps 726 mmHg 92%
05:00 +2°C° 0.1 mm 1 mps 727 mmHg 92%
06:00 +2°C° 0.1 mm 1 mps 727 mmHg 93%
07:00 +1°C° 0.2 mm 2 mps 727 mmHg 93%
08:00 0°C° 0.2 mm 3 mps 727 mmHg 94%
09:00 0°C° 0.2 mm 3 mps 727 mmHg 94%
10:00 0°C° 0.1 mm 3 mps 727 mmHg 91%
11:00 +1°C° 0.1 mm 3 mps 727 mmHg 87%
12:00 +1°C° 0.1 mm 3 mps 727 mmHg 84%
13:00 +2°C° 0.1 mm 3 mps 727 mmHg 81%
14:00 +2°C° 0.1 mm 3 mps 727 mmHg 79%
15:00 +2°C° 0.1 mm 3 mps 727 mmHg 76%
16:00 +3°C° 0 mm 2 mps 727 mmHg 79%
17:00 +2°C° 0 mm 2 mps 728 mmHg 81%
18:00 +2°C° 0 mm 1 mps 728 mmHg 84%
19:00 +2°C° 0 mm 1 mps 728 mmHg 85%
20:00 +2°C° 0 mm 1 mps 728 mmHg 86%
21:00 -1°C° 0 mm 2 mps 728 mmHg 88%
22:00 -1°C° 0 mm 2 mps 728 mmHg 89%
23:00 -1°C° 0 mm 2 mps 728 mmHg 90%

30 January, Saturday

Time Temperature Precipitation Wind Pressure Humidity
00:00 +1°C° 0 mm 1 mps 728 mmHg 91%
01:00 -1°C° 0 mm 2 mps 728 mmHg 89%
02:00 -1°C° 0 mm 2 mps 728 mmHg 86%
03:00 -2°C° 0 mm 2 mps 728 mmHg 84%
04:00 -2°C° 0 mm 2 mps 728 mmHg 83%
05:00 0°C° 0 mm 1 mps 727 mmHg 81%
06:00 0°C° 0 mm 1 mps 727 mmHg 80%
07:00 +1°C° 0 mm 1 mps 727 mmHg 78%
08:00 +1°C° 0 mm 1 mps 727 mmHg 77%
09:00 -1°C° 0 mm 2 mps 727 mmHg 75%
10:00 +2°C° 0 mm 2 mps 727 mmHg 69%
11:00 +3°C° 0 mm 2 mps 726 mmHg 63%
12:00 +4°C° 0 mm 2 mps 726 mmHg 57%
13:00 +5°C° 0 mm 2 mps 726 mmHg 59%
14:00 +4°C° 0 mm 3 mps 725 mmHg 60%
15:00 +4°C° 0 mm 3 mps 725 mmHg 61%
16:00 +3°C° 0 mm 3 mps 725 mmHg 69%
17:00 +2°C° 0 mm 3 mps 725 mmHg 76%
18:00 0°C° 0 mm 3 mps 725 mmHg 83%
19:00 0°C° 0 mm 3 mps 724 mmHg 85%
20:00 -1°C° 0 mm 4 mps 724 mmHg 86%
21:00 -1°C° 0 mm 4 mps 724 mmHg 88%
22:00 -1°C° 0 mm 4 mps 723 mmHg 88%
23:00 -2°C° 0 mm 4 mps 723 mmHg 87%

31 January, Sunday

Time Temperature Precipitation Wind Pressure Humidity
00:00 -1°C° 0 mm 3 mps 723 mmHg 87%
01:00 -1°C° 0 mm 3 mps 722 mmHg 86%
02:00 -1°C° 0 mm 3 mps 722 mmHg 86%
03:00 -1°C° 0 mm 3 mps 721 mmHg 85%
04:00 -1°C° 0 mm 3 mps 721 mmHg 83%
05:00 -1°C° 0 mm 3 mps 721 mmHg 82%
06:00 -1°C° 0 mm 3 mps 721 mmHg 80%
07:00 +1°C° 0 mm 2 mps 721 mmHg 76%
08:00 +2°C° 0 mm 2 mps 722 mmHg 72%
09:00 +3°C° 0 mm 1 mps 722 mmHg 68%
10:00 +4°C° 0 mm 1 mps 723 mmHg 63%
11:00 +6°C° 0 mm 1 mps 723 mmHg 59%
12:00 +7°C° 0 mm 1 mps 724 mmHg 54%
13:00 +7°C° 0 mm 1 mps 724 mmHg 55%
14:00 +7°C° 0 mm 0 mps 725 mmHg 56%
15:00 +7°C° 0 mm 0 mps 725 mmHg 57%
16:00 +7°C° 0 mm 1 mps 726 mmHg 60%
17:00 +6°C° 0 mm 1 mps 726 mmHg 63%
18:00 +5°C° 0 mm 1 mps 727 mmHg 66%
19:00 +5°C° 0 mm 1 mps 728 mmHg 66%
20:00 +5°C° 0 mm 1 mps 728 mmHg 67%
21:00 +4°C° 0 mm 0 mps 729 mmHg 68%
22:00 +5°C° 0 mm 1 mps 729 mmHg 69%
23:00 +5°C° 0 mm 1 mps 729 mmHg 70%

1 February, Monday

Time Temperature Precipitation Wind Pressure Humidity
00:00 +4°C° 0 mm 2 mps 729 mmHg 72%
01:00 +4°C° 0 mm 2 mps 729 mmHg 74%
02:00 +3°C° 0 mm 2 mps 729 mmHg 76%
03:00 +2°C° 0 mm 3 mps 729 mmHg 79%
04:00 +2°C° 0 mm 3 mps 729 mmHg 78%
05:00 +2°C° 0 mm 3 mps 729 mmHg 76%
06:00 +1°C° 0 mm 4 mps 729 mmHg 75%
07:00 +3°C° 0 mm 4 mps 729 mmHg 74%
08:00 +3°C° 0 mm 4 mps 729 mmHg 73%
09:00 +3°C° 0 mm 5 mps 729 mmHg 72%
10:00 +5°C° 0 mm 5 mps 729 mmHg 68%
11:00 +7°C° 0 mm 6 mps 729 mmHg 64%
12:00 +8°C° 0 mm 7 mps 728 mmHg 60%
13:00 +8°C° 0 mm 6 mps 728 mmHg 60%
14:00 +8°C° 0 mm 6 mps 728 mmHg 61%
15:00 +9°C° 0 mm 5 mps 728 mmHg 62%
16:00 +7°C° 0 mm 4 mps 728 mmHg 67%
17:00 +6°C° 0 mm 4 mps 728 mmHg 71%
18:00 +5°C° 0 mm 4 mps 728 mmHg 76%
19:00 +5°C° 0 mm 3 mps 728 mmHg 77%
20:00 +4°C° 0 mm 3 mps 728 mmHg 78%
21:00 +5°C° 0 mm 2 mps 729 mmHg 79%
22:00 +5°C° 0 mm 2 mps 729 mmHg 76%
23:00 +5°C° 0 mm 2 mps 729 mmHg 73%
Show more

We Need Your Consent

Meteoprog and our Service Providers may store and access personal data such as cookies, device identifiers or other similar technologies on your device and process such data to personalise content and ads, as well as provide social media features and to analyse the traffic.

  • Store and/or access information on your device

    Cookies, device identifiers or other information can be stored or accessed on your device for the purposes indicated above.

  • Personalised ads and content, ad and content measurement, audience insights, and products development

    Ads and content can be personalised based on a profile. More data can be added to better personalise ads and content. Ad and content performance can be measured. Insights about the audience who saw the ads and content can be derived. Such data can be used to develop or improve user’s experience, systems and software.

By clicking ‘I Agree’ you will allow the use of indicated cookies, device identifiers, web beacons or other similar technologies. Your settings can be changed in the browser on your device.

For certain purposes, legitimate interests may be relied on, rather than consent. You can read more about this in our Privacy and Cookie Policy.